Weather in Altai

Mongolia     46°22′07″N   96°15′27″E
temp.,
°C
wind,
m/s
gust,
m/s
humid.,
%
clouds,
%
prec.,
mm/h
press.,
hPa
HPBL,
m
8 march, mon
mon823:00−10se22370 0.0 102021
02:00−10ese22300 0.0 102021
05:00−11ese12280 0.0 102021
08:00−10e222518 0.0 102121
11:00−5se1246100 0.0 102122
14:00−3sse124596 0.0 1019242
17:00−4sse225791 0.0 101849
20:00−7se334196 0.0 102022
9 march, tue
tue923:00−8sse334322 0.0 102122
02:00−7sse333835 0.0 102123
05:00−7s223879 0.0 102122
08:00−8s223587 0.0 102321
11:00−3ssw225195 0.0 102240
14:00−2wsw224398 0.0 1020328
17:00−2ne115596 0.0 101953
20:00−8ene234960 0.0 102121
10 march, wed
wed1023:00−8ene33610 0.0 102222
02:00−9e23533 0.0 102221
05:00−9ese23540 0.0 102121
08:00−10ese23540 0.0 102121
11:00−6se23600 0.0 102061
14:00−3ssw34460 0.0 1017540
17:00−4ssw22520 0.0 101653
20:00−8se11280 0.0 101821
11 march, thu
thu1123:00−8e12280 0.0 102021
02:00−8ese22270 0.0 102021
05:00−8ese22390 0.0 102121
08:00−9ese22420 0.0 102121
11:00−4se225552 0.0 102139
14:00−1se235230 0.0 1018209
17:00−1se22560 0.0 101655
20:00−6se34460 0.0 101824
12 march, fri
fri1223:00−6se45477 0.0 101940
02:00−5sse564741 0.0 101998
05:00−5sse6114997 0.0 1020173
08:00−5sse565291 0.1 102078
11:00−3s51160100 0.0 1020384
14:00−1s2360100 0.0 1019276
17:00−1sse2265100 0.0 1017114
20:00−5se2258100 0.0 101821